User: anonymous   Login
Location: Unspecified
(0.0000°N, 0.0000°E)
Time: 09:48:36
(UTC+02:00)
Language:

Ariane H10 - Orbit

View from above orbital plane
View from above orbital plane
View from above satellite
View from above satellite

Ground track
Ground track

The orbit data is extracted from the following two-line orbital elements,

1 21815U 91084C   17228.36584199  .00000067  00000-0  55437-3 0  9994
2 21815   4.0854  56.6815 7189596 123.8229 325.4542  2.31762616213738
Epoch (UTC): 16 August 2017 08:46:48
Eccentricity: 0.7189596
inclination: 4.0854°
perigee height: 400 km
apogee height: 35082 km
right ascension of ascending node: 56.6815°
argument of perigee: 123.8229°
revolutions per day: 2.31762616
mean anomaly at epoch: 325.4542°
orbit number at epoch: 21373

The dashed part of the orbit path shows where the satellite is in the earth's shadow,  

DLR